sat.trackr.live / text

‹ back to catalog

MIKROGLOB-1 (PIRX-1)

NORAD 69895 · 2026-156AC

PAYLOAD ACTIVE UNKNOWN

§ Identity

Operator
Country
POL
Launch date
2026-07-07
Launch site
AFWTR
Launch vehicle
Mass (kg)
RCS (m²)

External: N2YO · Heavens-Above · Gunter

§ Orbital elements

Epoch: 2026-09-20T03:21:53.813952Z

Period
96.54 min
Inclination
97.7430°
Eccentricity
0.0004803
Mean motion
14.91653884 rev/d
Perigee alt
589.4 km
Apogee alt
596.1 km
Semi-major
6,970.9 km
B*
7.9404e-5
RAAN
162.2995°
Arg perigee
253.5157°
Mean anomaly
106.5534°
Rev number
1,115

§ Raw data

MIKROGLOB-1 (PIRX-1)1 69895U 26156AC  26263.14020618  .00000742  00000+0  79404-4 0  99982 69895  97.7430 162.2995 0004803 253.5157 106.5534 14.91653884 11157

JSON: /api/v1/satellites/69895 · /tle

For live sub-satellite position, see the globe view (requires WebGL).

§ Visibility from observer

Set your observer location to see the next 7 days of passes ≥ 10°. The values pass through the URL so the page stays shareable.

No JS? Fill the form by hand. The geolocation button needs JavaScript.